This is the latest recevied weather packets stored in our database for station/object EA6AMI-5. If no packets are shown the sender has not sent any weather packets the latest 10 day(s).
| Time | Temp. | Humidity | Pressure | Rain* | Wind** | Luminosity | Snow |
|---|---|---|---|---|---|---|---|
| 1787642824 | 27.22° C | 66% | 1013.9 hPa | 0 mm | - | 240 W/m² | - |
| 1787642283 | 26.67° C | 67% | 1013.6 hPa | 0 mm | - | 205 W/m² | - |
| 1787641743 | 26.67° C | 69% | 1013.6 hPa | 0 mm | - | 168 W/m² | - |
| 1787641203 | 25.56° C | 70% | 1013.6 hPa | 0 mm | - | 126 W/m² | - |
| 1787640843 | 25.56° C | 71% | 1013.7 hPa | 0 mm | - | 112 W/m² | - |
| 1787640303 | 25.56° C | 72% | 1013.6 hPa | 0 mm | - | 98 W/m² | - |
| 1787639763 | 25.56° C | 70% | 1013.4 hPa | 0 mm | - | 86 W/m² | - |
| 1787639223 | 25° C | 72% | 1013.2 hPa | 0 mm | - | 75 W/m² | - |
| 1787638684 | 23.89° C | 74% | 1013.4 hPa | 0 mm | - | 67 W/m² | - |
| 1787638143 | 24.44° C | 74% | 1013.3 hPa | 0 mm | - | 56 W/m² | - |
| 1787637603 | 23.89° C | 73% | 1013.2 hPa | 0 mm | - | 46 W/m² | - |
| 1787637244 | 24.44° C | 72% | 1013.1 hPa | 0 mm | - | 38 W/m² | - |
| 1787636703 | 23.89° C | 74% | 1012.9 hPa | 0 mm | - | 28 W/m² | - |
| 1787636163 | 23.33° C | 74% | 1013.1 hPa | 0 mm | - | 19 W/m² | - |
| 1787635623 | 23.33° C | 74% | 1013.1 hPa | 0 mm | - | 11 W/m² | - |
| 1787635083 | 23.89° C | 70% | 1012.9 hPa | 0 mm | - | 6 W/m² | - |
| 1787634543 | 23.89° C | 68% | 1012.9 hPa | 0 mm | - | 2 W/m² | - |
| 1787634004 | 23.89° C | 68% | 1012.6 hPa | 0 mm | - | 0 W/m² | - |
| 1787633643 | 23.89° C | 69% | 1012.9 hPa | 0 mm | - | 0 W/m² | - |
| 1787633104 | 23.89° C | 70% | 1012.9 hPa | 0 mm | - | 0 W/m² | - |
| 1787632563 | 23.89° C | 70% | 1012.9 hPa | 0 mm | - | 0 W/m² | - |
| 1787632023 | 23.89° C | 70% | 1012.8 hPa | 0 mm | - | 0 W/m² | - |
| 1787631483 | 23.89° C | 74% | 1012.9 hPa | 0 mm | - | 0 W/m² | - |
| 1787630944 | 23.89° C | 76% | 1012.9 hPa | 0 mm | - | 0 W/m² | - |
| 1787630404 | 23.89° C | 74% | 1012.9 hPa | 0 mm | - | 0 W/m² | - |
* Rain latest hour (hover to see other rain measurements)
** Current wind speed in m/s (hover to see current wind gust speed)